| time (UTC) | temp F | wind direction | speed MPH | gust MPH | rain 1hr in | rain 24hr in | rain mn in | humidity % | barometer mb |
| 20260504233031 | 53 | 37 | 2.0 | 7.0 | 0.00 | 0.00 | 0.00 | 82 | 1023.8 |
| 20260504231528 | 53 | 35 | 3.0 | 8.0 | 0.00 | 0.00 | 0.00 | 82 | 1023.6 |
| 20260504230027 | 53 | 71 | 2.0 | 8.0 | 0.00 | 0.00 | 0.00 | 82 | 1023.5 |
| 20260504224522 | 53 | 91 | 1.0 | 7.0 | 0.00 | 0.00 | 0.00 | 81 | 1023.3 |
| 20260504223020 | 53 | 70 | 3.0 | 8.0 | 0.00 | 0.00 | 0.00 | 81 | 1023.1 |
| 20260504221522 | 53 | 165 | 3.0 | 8.0 | 0.00 | 0.00 | 0.00 | 81 | 1023.0 |
| 20260504220021 | 53 | 66 | 2.0 | 8.0 | 0.00 | 0.00 | 0.00 | 80 | 1022.9 |
| 20260504214552 | 54 | 25 | 3.0 | 10.0 | 0.00 | 0.00 | 0.00 | 80 | 1022.8 |
| 20260504213050 | 54 | 123 | 2.0 | 7.0 | 0.00 | 0.00 | 0.00 | 80 | 1022.8 |
| 20260504211539 | 54 | 103 | 3.0 | 6.0 | 0.00 | 0.00 | 0.00 | 80 | 1022.9 |
| 20260504210037 | 54 | 114 | 3.0 | 7.0 | 0.00 | 0.00 | 0.00 | 79 | 1023.0 |
| 20260504204535 | 54 | 55 | 0.0 | 9.0 | 0.00 | 0.00 | 0.00 | 79 | 1022.9 |
| 20260504203034 | 54 | 135 | 3.0 | 7.0 | 0.00 | 0.00 | 0.00 | 79 | 1022.9 |
| 20260504201501 | 55 | 104 | 2.0 | 7.0 | 0.00 | 0.00 | 0.00 | 78 | 1022.9 |
| 20260504194557 | 55 | 101 | 3.0 | 7.0 | 0.00 | 0.00 | 0.00 | 77 | 1023.1 |
| 20260504193059 | 55 | 138 | 2.0 | 7.0 | 0.00 | 0.00 | 0.00 | 77 | 1023.1 |
| 20260504191558 | 56 | 130 | 2.0 | 6.0 | 0.00 | 0.00 | 0.00 | 77 | 1023.1 |
| 20260504190108 | 56 | 92 | 0.0 | 7.0 | 0.00 | 0.00 | 0.00 | 77 | 1023.2 |
| 20260504184524 | 56 | 121 | 1.0 | 7.0 | 0.00 | 0.00 | 0.00 | 77 | 1023.4 |
| 20260504183037 | 56 | 121 | 2.0 | 7.0 | 0.00 | 0.00 | 0.00 | 77 | 1023.4 |
| 20260504181525 | 56 | 78 | 2.0 | 8.0 | 0.00 | 0.00 | 0.00 | 76 | 1023.5 |
| 20260504180022 | 56 | 73 | 3.0 | 7.0 | 0.00 | 0.00 | 0.00 | 76 | 1023.6 |
| 20260504174522 | 56 | 125 | 2.0 | 6.0 | 0.00 | 0.00 | 0.00 | 76 | 1023.6 |
| 20260504173021 | 57 | 105 | 3.0 | 8.0 | 0.00 | 0.00 | 0.00 | 75 | 1023.6 |
| 20260504171517 | 57 | 82 | 3.0 | 6.0 | 0.00 | 0.00 | 0.00 | 76 | 1023.7 |
| 20260504081534 | 67 | 171 | 9.0 | 15.0 | 0.00 | 0.00 | 0.00 | 68 | 1023.0 |
| 20260504044537 | 70 | 122 | 2.0 | 7.0 | 0.00 | 0.00 | 0.00 | 53 | 1024.2 |
| 20260504043027 | 70 | 355 | 1.0 | 7.0 | 0.00 | 0.00 | 0.00 | 53 | 1024.4 |
| 20260504041523 | 70 | 355 | 1.0 | 6.0 | 0.00 | 0.00 | 0.00 | 53 | 1024.6 |
| 20260504040020 | 70 | 340 | 1.0 | 5.0 | 0.00 | 0.00 | 0.00 | 55 | 1024.9 |
| 20260504034517 | 69 | 32 | 1.0 | 8.0 | 0.00 | 0.00 | 0.00 | 55 | 1025.1 |
| 20260504033010 | 69 | 63 | 3.0 | 9.0 | 0.00 | 0.00 | 0.00 | 56 | 1025.3 |
| 20260504031508 | 68 | 84 | 2.0 | 7.0 | 0.00 | 0.00 | 0.00 | 59 | 1025.5 |
| 20260504030009 | 67 | 163 | 2.0 | 9.0 | 0.00 | 0.00 | 0.00 | 59 | 1025.5 |
| 20260504024600 | 67 | 109 | 1.0 | 10.0 | 0.00 | 0.00 | 0.00 | 61 | 1025.7 |
| 20260504023101 | 66 | 32 | 3.0 | 10.0 | 0.00 | 0.00 | 0.00 | 63 | 1025.8 |
| 20260504021551 | 65 | 30 | 1.0 | 8.0 | 0.00 | 0.00 | 0.00 | 66 | 1025.9 |
| 20260504020043 | 63 | 82 | 1.0 | 7.0 | 0.00 | 0.00 | 0.00 | 69 | 1026.0 |
| 20260504014547 | 63 | 16 | 3.0 | 9.0 | 0.00 | 0.00 | 0.00 | 70 | 1026.0 |
| 20260504013005 | 62 | 57 | 5.0 | 11.0 | 0.00 | 0.00 | 0.00 | 70 | 1025.9 |
| 20260504011600 | 61 | 360 | 2.0 | 8.0 | 0.00 | 0.00 | 0.00 | 73 | 1026.0 |
| 20260504010028 | 60 | 62 | 3.0 | 7.0 | 0.00 | 0.00 | 0.00 | 74 | 1025.9 |
| 20260504004521 | 59 | 197 | 2.0 | 7.0 | 0.00 | 0.00 | 0.00 | 78 | 1026.0 |
| 20260504003024 | 58 | 80 | 2.0 | 7.0 | 0.00 | 0.00 | 0.00 | 80 | 1026.0 |
| 20260504001509 | 56 | 123 | 2.0 | 8.0 | 0.00 | 0.00 | 0.00 | 82 | 1026.0 |
| 20260504000004 | 55 | 94 | 1.0 | 7.0 | 0.00 | 0.00 | 0.00 | 82 | 1025.8 |
| 20260503234501 | 54 | 69 | 2.0 | 7.0 | 0.00 | 0.00 | 0.00 | 82 | 1025.7 |